Weather in Bordeaux

France     44°50′40″N   0°34′41″E
temp.,
°C
wind,
m/s
gust,
m/s
humid.,
%
clouds,
%
prec.,
mm/h
press.,
hPa
HPBL,
m
30 november, tue
tue3001:00+1ese22920 0.0 102434
04:00+1se22930 0.0 102541
07:000se11920 0.0 102623
10:00+3s12815 0.0 1028102
13:00+8ssw1260100 0.0 1027352
16:00+9ssw1268100 0.0 102546
19:00+6ssw228867 0.0 102535
22:00+6ssw379639 0.0 1023133
1 december, wed
wed101:00+8ssw41097100 0.0 1020291
04:00+10sw51391100 0.0 1017769
07:00+12wsw71493100 0.6 10141058
10:00+12w81492100 7.4 10121019
13:00+12wnw5980100 8.3 1012949
16:00+11wnw610785 0.4 10121017
19:00+9wnw410805 0.7 1011519
22:00+7w38875 0.1 1010261
2 december, thu
thu201:00+7w389397 1.3 1008294
04:00+6nw25925 1.3 1008205
07:00+5wnw25905 1.3 1010109
10:00+6nnw4118637 0.1 1013806
13:00+8nnw69665 0.2 10141288
16:00+8nw58573 0.0 10141029
19:00+5w3674100 0.0 1015233
22:00+6nw398633 0.3 1016422
3 december, fri
fri301:00+3nnw48916 0.3 1019359
04:00+2nnw22885 0.0 102067
07:00+1s228793 0.0 102140
10:00+3s3580100 0.4 1020176
13:00+4s51391100 2.9 1017441
16:00+10w51496100 0.5 1014667
19:00+12w61392100 0.6 1015745
22:00+12w71487100 0.4 1016926
4 december, sat
sat401:00+12w51190100 0.9 1015634
04:00+12wsw61496100 2.4 10131017
07:00+12w51098100 5.4 1012630
10:00+11nw599122 3.6 1015577
13:00+12nw51072100 3.7 10171336
16:00+11w6127584 0.6 10171256
19:00+10wnw7137799 0.9 10191121
22:00+9nw6137680 1.1 10201145